[[{"header":{"parameterUnit":"m.s-1","parameterCategory":1,"la1":30.2991,"la2":30.254,"lo1":-89.0895,"lo2":-89.0444,"dy":0.0017,"dx":0.0017,"nx":28,"ny":28,"refTime":"2024-09-28T09:00:00:Z","depth":0,"parameterNumber":2,"parameterNumberName":"U-component_of_WINDS"},"data":[0,0,0,0,0,0,0,0,0,0,0,0,0,0,0,0,0,0,0,0,0,0,0,0,0,0,0,0,0,0,0,0,0,0,0,0,0,0,0,0,0,0,0,0,0,0,0,0,0,0,0,0,0,0,0,0,0,0,5.5203,5.5205,0,5.5419,5.5421,5.5424,5.5399,5.5395,5.5392,5.5388,5.5615,5.5624,5.5633,0,0,0,0,0,0,0,0,0,0,0,0,0,5.4772,5.478,5.5202,5.5205,5.5208,5.5418,5.5421,5.5424,5.5399,5.5395,5.5391,5.5387,5.5612,5.5623,5.5634,0,0,0,0,0,0,0,0,0,0,0,0,0,5.4971,5.4783,5.5202,5.5221,5.5224,5.5418,5.5421,5.5425,5.54,5.5395,5.539,5.5385,5.5608,5.5621,5.5635,5.5825,0,0,5.5678,5.5684,0,0,0,0,0,0,0,0,5.496,5.4987,5.5215,5.522,5.5224,5.5376,5.5353,5.5559,5.5401,5.5334,5.5388,5.5382,5.554,5.5559,5.5611,5.5836,5.5846,5.5679,5.5687,5.5693,5.5697,0,0,0,0,0,0,0,5.4946,5.4977,5.5288,5.5219,5.5224,5.522,5.5242,5.5392,5.5464,5.5339,5.5338,5.5363,5.5541,5.5598,5.5616,5.5849,5.5678,5.5691,5.5699,5.5705,5.624,5.6246,0,0,0,0,0,0,5.4927,5.4966,5.5281,5.5295,5.5076,5.5232,5.5257,5.5333,5.5462,5.5476,5.5368,5.5361,5.5577,5.56,5.5624,5.5855,5.5693,5.5706,5.5714,5.6234,5.6242,5.6248,0,0,0,0,0,0,5.4918,5.4955,5.5273,5.513,5.517,5.5244,5.533,5.534,5.5396,5.5483,5.5496,5.5412,5.5573,5.5605,5.5775,5.5862,5.5712,5.5725,5.6228,5.6237,5.6245,5.6317,0,0,0,0,0,0,5.4906,5.4952,5.5024,5.5132,5.5178,5.5419,5.5336,5.5348,5.542,5.5414,5.5528,5.5542,5.5572,5.5754,5.5789,5.5879,5.5736,5.622,5.6232,5.6242,5.6308,5.6328,5.6345,0,0,0,0,0,5.489,5.5037,5.5028,5.5066,5.5269,5.5424,5.545,5.548,5.5427,5.55,5.5556,5.5539,5.5847,5.5772,5.5811,5.5906,5.6215,5.6228,5.6241,5.6299,5.6324,5.6344,0,0,0,0,0,0,5.4939,5.5052,5.5043,5.5228,5.5317,5.5419,5.5513,5.5505,5.5611,5.5601,5.5635,5.5661,5.5833,5.5887,5.5801,5.6097,5.6024,5.6046,5.6055,5.6079,5.6097,5.608,5.5747,0,0,0,0,0,5.4972,5.5086,5.5179,5.5334,5.5378,5.5438,5.5507,5.5522,5.5615,5.5653,5.5721,5.5814,5.5931,5.6008,5.6122,5.6316,5.634,5.64,5.6419,5.6434,5.6452,5.6558,5.6586,5.6292,5.6291,5.6291,0,0,5.504,5.5115,5.5186,5.5346,5.5416,5.5535,5.547,5.5599,5.5688,5.5673,5.5837,5.5891,5.5996,5.6179,5.6263,5.6229,5.6539,5.6451,5.6462,5.6472,5.6575,5.6602,5.6627,5.6301,5.6299,5.6297,0,0,5.5224,5.5293,5.5429,5.5501,5.5607,5.5646,5.5678,5.5783,5.5817,5.5982,5.5973,5.6081,5.6283,5.6358,5.6423,5.6636,5.6624,5.6673,5.677,5.6873,5.6896,5.6917,5.6993,5.7019,5.6691,5.6691,5.6691,0,5.5296,5.5474,5.5501,5.5631,5.5702,5.5692,5.5831,5.5899,5.6038,5.6088,5.6047,5.63,5.6371,5.6571,5.6623,5.6676,5.6715,5.6659,5.689,5.6912,5.6931,5.7004,5.7032,5.6696,5.6695,5.6695,5.6694,0,5.5556,5.568,5.5778,5.591,5.5992,5.6126,5.6174,5.6254,5.6262,5.6306,5.6474,5.6559,5.6688,5.6737,5.6747,5.6939,5.6915,5.6882,5.681,5.6964,5.7033,5.7061,5.6703,5.6701,5.67,5.6699,0,0,5.5778,5.5922,5.5958,5.6017,5.6134,5.6231,5.6365,5.649,5.6558,5.6654,5.6768,5.6939,5.6909,5.6983,5.7002,5.7093,5.7256,5.7049,5.7052,5.7084,5.7472,5.7495,5.7527,5.7248,5.7254,5.7258,5.7463,0,5.5973,5.6208,5.6236,5.6446,5.6561,5.6553,5.667,5.6755,5.6799,5.6904,5.6954,5.7074,5.7026,5.7071,5.716,5.7217,5.7334,5.7202,5.7355,5.736,5.7328,5.7563,5.7588,5.7777,5.749,5.7495,5.7498,0,5.6233,5.6334,5.6554,5.6655,5.6704,5.6808,5.6925,5.7025,5.7122,5.7148,5.723,5.7237,5.7376,5.7298,5.7492,5.7402,5.7466,5.7503,5.7511,5.7526,5.7438,5.7583,5.7838,5.7866,5.7541,5.7537,5.7534,0,5.6371,5.6563,5.6719,5.6771,5.6892,5.6965,5.702,5.7111,5.7184,5.7287,5.7335,5.7454,5.7519,5.7612,5.7651,5.759,5.7842,5.7767,5.7868,5.7867,5.7921,5.7916,5.8188,5.7963,5.7963,5.7962,5.7962,0,5.6586,5.6721,5.6783,5.6879,5.703,5.7063,5.7212,5.7264,5.7345,5.7452,5.7454,5.7554,5.76,5.7709,5.7741,5.7896,5.7925,5.7951,5.7958,5.795,5.7947,5.7992,5.798,5.797,5.7968,5.7967,5.7966,0,5.6765,5.6812,5.6982,5.7083,5.7111,5.7218,5.7305,5.7399,5.7442,5.7577,5.7611,5.7679,5.7807,5.7855,5.8012,5.8033,5.8212,5.8209,5.8179,5.818,5.8277,5.8267,5.8587,5.8631,5.8378,5.838,5.8382,0,5.6899,5.7002,5.7113,5.7184,5.724,5.7355,5.7429,5.7466,5.7544,5.7661,5.7741,5.7868,5.797,5.8175,5.8239,5.8359,5.8358,5.8462,5.8376,5.8365,5.8359,5.8352,5.8362,5.8478,5.848,5.8482,5.8484,0,5.7131,5.7149,5.7255,5.737,5.7458,5.7551,5.7641,5.77,5.775,5.7838,5.7967,5.8047,5.8205,5.8331,5.8454,5.8511,5.8507,5.8511,5.854,5.8533,5.8511,5.8524,5.8221,5.8503,5.8501,5.85,5.8499,5.8498,5.7291,5.7382,5.7474,5.7593,5.7664,5.7748,5.7841,5.7895,5.8003,5.8134,5.8149,5.8288,5.8383,5.8547,5.861,5.872,5.8692,5.8735,5.8746,5.8755,5.8762,5.8494,5.8742,5.8742,5.8741,5.8741,5.8741,0,5.7522,5.7581,5.769,5.7815,5.7908,5.7894,5.7993,5.8073,5.8194,5.8282,5.8383,5.8532,5.8654,5.8728,5.8851,5.8925,5.8926,5.8956,5.8951,5.8964,5.878,5.8742,5.8953,5.8953,5.8953,5.8953,5.8953,5.8953,5.7653,5.7807,5.7836,5.8025,5.8083,5.8218,5.8276,5.8354,5.8423,5.8589,5.869,5.8736,5.8819,5.8948,5.906,5.9079,5.9124,5.9156,5.9172,5.8999,5.8977,5.8956,5.892,5.9166,5.9166,5.9347,5.9349,5.935]},{"header":{"parameterUnit":"m.s-1","parameterCategory":1,"la1":30.2991,"la2":30.254,"lo1":-89.0895,"lo2":-89.0444,"dy":0.0017,"dx":0.0017,"nx":28,"ny":28,"refTime":"2024-09-28T09:00:00:Z","depth":0,"parameterNumber":3,"parameterNumberName":"V-component_of_WINDS"},"data":[0,0,0,0,0,0,0,0,0,0,0,0,0,0,0,0,0,0,0,0,0,0,0,0,0,0,0,0,0,0,0,0,0,0,0,0,0,0,0,0,0,0,0,0,0,0,0,0,0,0,0,0,0,0,0,0,0,0,2.8557,2.8558,0,2.863,2.8631,2.8632,2.8609,2.8607,2.8606,2.8604,2.8678,2.8681,2.8685,0,0,0,0,0,0,0,0,0,0,0,0,0,2.8396,2.8399,2.8557,2.8558,2.8559,2.863,2.8631,2.8632,2.8609,2.8607,2.8605,2.8603,2.8677,2.8681,2.8685,0,0,0,0,0,0,0,0,0,0,0,0,0,2.8467,2.84,2.8557,2.8556,2.8557,2.863,2.8631,2.8632,2.8609,2.8607,2.8605,2.8602,2.8675,2.868,2.8685,2.8763,0,0,2.8701,2.8703,0,0,0,0,0,0,0,0,2.8463,2.8473,2.8555,2.8556,2.8557,2.8608,2.8601,2.8676,2.861,2.8589,2.8604,2.8601,2.8656,2.8663,2.8682,2.8767,2.877,2.8701,2.8705,2.8707,2.8708,0,0,0,0,0,0,0,2.8458,2.847,2.8586,2.8556,2.8557,2.8551,2.8559,2.8615,2.8635,2.8591,2.8589,2.8598,2.8656,2.8677,2.8683,2.8771,2.8701,2.8706,2.8709,2.8711,2.8923,2.8925,0,0,0,0,0,0,2.8453,2.8466,2.8583,2.8588,2.8503,2.8556,2.8565,2.8594,2.8634,2.8638,2.86,2.8597,2.8669,2.8677,2.8686,2.8779,2.8707,2.8712,2.8714,2.892,2.8923,2.8926,0,0,0,0,0,0,2.845,2.8464,2.858,2.8527,2.8541,2.8561,2.8594,2.8596,2.8617,2.8641,2.8645,2.8618,2.8668,2.8679,2.8744,2.8781,2.8714,2.8718,2.8917,2.8921,2.8925,2.8967,0,0,0,0,0,0,2.8445,2.8463,2.8493,2.8527,2.8544,2.8638,2.8597,2.86,2.8626,2.8622,2.8658,2.8662,2.8667,2.8737,2.8749,2.8787,2.8722,2.8914,2.8919,2.8924,2.8963,2.8972,2.898,0,0,0,0,0,2.8439,2.8502,2.8495,2.8509,2.8582,2.864,2.865,2.8654,2.8629,2.8659,2.8675,2.8661,2.8775,2.8743,2.8757,2.8798,2.8912,2.8918,2.8923,2.8959,2.897,2.898,0,0,0,0,0,0,2.8471,2.8506,2.8499,2.8574,2.8605,2.8637,2.8675,2.8666,2.8704,2.8699,2.8702,2.8711,2.8778,2.8794,2.8758,2.8875,2.884,2.8848,2.8862,2.8873,2.8882,2.8876,2.8727,0,0,0,0,0,2.8487,2.8532,2.856,2.8624,2.8639,2.8655,2.868,2.8681,2.8712,2.8725,2.8745,2.8776,2.8818,2.8846,2.8887,2.8964,2.8972,2.8999,2.9008,2.9015,2.9023,2.9064,2.9076,2.8945,2.8945,2.8945,0,0,2.852,2.8545,2.8573,2.8631,2.8654,2.87,2.8666,2.8716,2.8749,2.8732,2.8795,2.8811,2.8846,2.8917,2.895,2.8933,2.906,2.9022,2.9028,2.9032,2.9071,2.9084,2.9095,2.8949,2.8948,2.8948,0,0,2.8604,2.8627,2.8683,2.8707,2.8743,2.8753,2.8766,2.8799,2.8809,2.8873,2.886,2.89,2.8974,2.8999,2.9021,2.9113,2.9102,2.9126,2.9172,2.9213,2.9223,2.9232,2.9265,2.9277,2.9134,2.9134,2.9134,0,2.864,2.8709,2.8712,2.8764,2.8789,2.8775,2.8831,2.8855,2.8902,2.892,2.89,2.8992,2.9014,2.9091,2.9113,2.9132,2.9147,2.9122,2.9221,2.9231,2.9239,2.927,2.9283,2.9137,2.9136,2.9136,2.9136,0,2.8752,2.88,2.884,2.8887,2.8917,2.897,2.8981,2.9011,2.9008,2.902,2.9084,2.911,2.9155,2.9174,2.9172,2.925,2.9239,2.922,2.9185,2.9254,2.9284,2.9296,2.914,2.9139,2.9139,2.9138,0,0,2.8858,2.8905,2.892,2.8941,2.8979,2.9016,2.9068,2.9113,2.9138,2.9171,2.9215,2.9277,2.926,2.9285,2.9286,2.9321,2.9392,2.9298,2.9299,2.9315,2.948,2.9494,2.9508,2.9385,2.9387,2.9389,2.9477,0,2.8945,2.9038,2.9042,2.9126,2.917,2.9157,2.9202,2.923,2.9242,2.9281,2.9293,2.9338,2.9312,2.9327,2.9361,2.9376,2.9425,2.937,2.9425,2.9427,2.9417,2.9523,2.9538,2.962,2.9488,2.949,2.9492,0,2.9059,2.9096,2.9184,2.9216,2.9235,2.9275,2.9316,2.9354,2.9385,2.9391,2.9419,2.9414,2.9467,2.9429,2.9502,2.9464,2.9486,2.9497,2.95,2.9506,2.9464,2.9531,2.9646,2.9659,2.951,2.9508,2.9507,0,2.9128,2.9199,2.9261,2.9279,2.9318,2.9347,2.9364,2.9393,2.9419,2.9455,2.9472,2.9513,2.9535,2.9567,2.9573,2.9545,2.9645,2.9609,2.9651,2.9651,2.9673,2.9672,2.9794,2.9688,2.9687,2.9687,2.9687,0,2.9225,2.9279,2.9293,2.9331,2.9391,2.9395,2.9454,2.9469,2.9495,2.9536,2.9527,2.9565,2.957,2.961,2.9615,2.9674,2.9684,2.969,2.969,2.9691,2.969,2.9706,2.97,2.9691,2.969,2.9689,2.9689,0,2.9312,2.9323,2.939,2.942,2.9429,2.9473,2.9499,2.9535,2.9545,2.9597,2.9609,2.9625,2.9671,2.968,2.9734,2.9737,2.9807,2.9802,2.9797,2.9796,2.9839,2.9835,2.9975,2.9994,2.9875,2.9876,2.9877,0,2.9373,2.9414,2.945,2.9476,2.9495,2.9538,2.9565,2.957,2.9598,2.9636,2.9668,2.9712,2.9748,2.9822,2.9838,2.9879,2.9875,2.9921,2.9881,2.988,2.9875,2.9873,2.9877,2.9929,2.993,2.9931,2.9932,0,2.948,2.9483,2.9523,2.9564,2.9596,2.9629,2.966,2.9682,2.9691,2.9723,2.9769,2.9797,2.9852,2.9896,2.9937,2.9954,2.9945,2.9945,2.9957,2.9958,2.9953,2.9956,2.9818,2.9941,2.9941,2.994,2.9939,2.9939,2.9556,2.9592,2.9623,2.9667,2.969,2.9719,2.9755,2.977,2.9809,2.9854,2.9854,2.9905,2.9935,2.9988,3.0008,3.0047,3.0033,3.005,3.0055,3.0059,3.0063,2.9946,3.0055,3.0054,3.0054,3.0054,3.0054,0,2.9663,2.9681,2.9722,2.9766,2.98,2.9788,2.9821,2.9851,2.9896,2.9924,2.996,3.0013,3.0056,3.0075,3.0117,3.0145,3.0142,3.0156,3.0154,3.0158,3.0074,3.0059,3.0158,3.0158,3.0158,3.0158,3.0158,3.0158,2.9722,2.9783,2.979,2.9862,2.988,2.9931,2.9951,2.9977,3.0,3.006,3.0095,3.0108,3.0132,3.0176,3.0214,3.0219,3.0235,3.0251,3.0254,3.0175,3.0164,3.0154,3.014,3.0254,3.0255,3.0335,3.0335,3.0336]}]]